Weather History for KMWT - October, 2013

Change the Weather History Date:

Sunday, October 27, 2013

  Actual Average (KHOT) Record (KHOT)
Temperature  
Mean Temperature 58 °F -  
Max Temperature 64 °F 72 °F 90 °F (1992)
Min Temperature 53 °F 47 °F 30 °F (1957)
Degree Days  
Heating Degree Days 6    
Growing Degree Days 8 (Base 50)    
Moisture  
Dew Point 55 °F    
Average Humidity 96    
Maximum Humidity 100    
Minimum Humidity 80    
Precipitation  
Precipitation 0.37 in - - ()
Sea Level Pressure  
Sea Level Pressure 30.05 in    
Wind  
Wind Speed 0 mph (South)    
Max Wind Speed 5 mph    
Max Gust Speed -    
Visibility 4 miles    
Events Fog , Rain    
Averages and records for this station are not official NWS values.
T = Trace of Precipitation, MM = Missing Value Source: NWS Daily Summary

Daily Weather History Graph

Daily Weather History Graph

Search for Another Location

Airport or City:

Trip Planner

Search our weather history database for the weather conditions in past years. The results will help you decide how hot, cold, wet, or windy it might be!

Date:

Astronomy

Oct. 27, 2013 Rise Set
Actual Time 7:30 AM CDT 6:25 PM CDT
Civil Twilight 7:04 AM CDT 6:51 PM CDT
Nautical Twilight 6:34 AM CDT 7:20 PM CDT
Astronomical Twilight 6:05 AM CDT 7:50 PM CDT
Moon 12:44 AM CDT (10/27) 2:19 PM CDT (10/27)
Length of Visible Light 11h 46m
Length of Day
10h 55m
Last Quarter, 43% of the Moon is Illuminated
Oct 27
Last Quarter
Nov 3
New
Nov 9
First Quarter
Nov 17
Full
Nov 25
Last Quarter

Hourly Weather History & Observations

Time (CDT) Temp. Dew Point Humidity Pressure Visibility Wind Dir Wind Speed Gust Speed Precip Events Conditions
12:21 AM 53.1 °F 53.1 °F 100% 30.09 in 2.5 mi Calm Calm - N/A   Overcast
12:27 AM 53.1 °F 53.1 °F 100% 30.09 in 3.0 mi Calm Calm - N/A   Overcast
12:53 AM 54.0 °F 53.1 °F 97% 30.09 in 3.0 mi Calm Calm - N/A   Overcast
1:08 AM 54.0 °F 53.1 °F 97% 30.09 in 1.8 mi Calm Calm - N/A   Overcast
1:31 AM 53.1 °F 53.1 °F 100% 30.09 in 2.0 mi Calm Calm - N/A   Overcast
1:40 AM 54.0 °F 53.1 °F 97% 30.09 in 4.0 mi Calm Calm - N/A   Overcast
1:53 AM 54.0 °F 53.1 °F 97% 30.09 in 4.0 mi Calm Calm - N/A   Overcast
2:28 AM 54.0 °F 53.1 °F 97% 30.07 in 1.8 mi Calm Calm - N/A   Overcast
2:43 AM 54.0 °F 53.1 °F 97% 30.06 in 3.0 mi Calm Calm - N/A   Overcast
2:53 AM 54.0 °F 53.1 °F 97% 30.06 in 2.5 mi Calm Calm - N/A   Overcast
3:03 AM 53.1 °F 53.1 °F 100% 30.05 in 1.0 mi Calm Calm - N/A   Overcast
3:10 AM 53.1 °F 53.1 °F 100% 30.05 in 0.8 mi Calm Calm - N/A   Overcast
3:33 AM 53.1 °F 53.1 °F 100% 30.04 in 1.0 mi Calm Calm - 0.00 in   Mostly Cloudy
3:40 AM 53.1 °F 52.0 °F 96% 30.04 in 0.5 mi Calm Calm - 0.00 in Fog Fog
3:53 AM 53.1 °F 52.0 °F 96% 30.05 in 1.0 mi Calm Calm - 0.00 in   Overcast
4:04 AM 53.1 °F 53.1 °F 100% 30.04 in 1.0 mi Calm Calm - N/A   Overcast
4:24 AM 53.1 °F 53.1 °F 100% 30.04 in 3.0 mi Calm Calm - 0.00 in Rain Light Rain
4:32 AM 53.1 °F 53.1 °F 100% 30.04 in 1.8 mi Calm Calm - 0.00 in Rain Light Rain
4:40 AM 53.1 °F 53.1 °F 100% 30.04 in 3.0 mi Calm Calm - 0.01 in Rain Light Rain
4:45 AM 53.1 °F 53.1 °F 100% 30.04 in 2.5 mi Calm Calm - 0.01 in Rain Light Rain
4:53 AM 53.1 °F 53.1 °F 100% 30.04 in 1.8 mi Calm Calm - 0.01 in Rain Light Rain
4:58 AM 53.1 °F 53.1 °F 100% 30.04 in 3.0 mi Calm Calm - 0.01 in Rain Light Rain
5:20 AM 54.0 °F 53.1 °F 97% 30.04 in 4.0 mi Calm Calm - 0.02 in Rain Light Rain
5:29 AM 53.1 °F 53.1 °F 100% 30.04 in 4.0 mi SE 4.6 mph - 0.03 in Rain Light Rain
5:53 AM 54.0 °F 53.1 °F 97% 30.05 in 4.0 mi SE 4.6 mph - 0.05 in Rain Light Rain
6:17 AM 54.0 °F 54.0 °F 100% 30.04 in 2.5 mi Calm Calm - 0.03 in Rain Light Rain
6:31 AM 54.0 °F 53.1 °F 97% 30.04 in 1.5 mi Calm Calm - 0.05 in Rain Rain
6:40 AM 54.0 °F 54.0 °F 100% 30.04 in 1.2 mi Calm Calm - 0.06 in Rain Light Rain
6:53 AM 54.0 °F 54.0 °F 100% 30.04 in 1.2 mi Calm Calm - 0.07 in Rain Light Rain
7:28 AM 54.0 °F 53.1 °F 97% 30.04 in 2.0 mi Calm Calm - 0.01 in   Overcast
7:42 AM 54.0 °F 53.1 °F 97% 30.04 in 1.2 mi Calm Calm - 0.01 in Rain Light Rain
7:53 AM 54.0 °F 53.1 °F 97% 30.04 in 1.2 mi Calm Calm - 0.01 in Rain Light Rain
8:02 AM 54.0 °F 53.1 °F 97% 30.04 in 0.8 mi Calm Calm - 0.01 in Rain Rain
8:10 AM 54.0 °F 53.1 °F 97% 30.05 in 1.0 mi Calm Calm - 0.03 in Rain Rain
8:44 AM 54.0 °F 54.0 °F 100% 30.06 in 2.0 mi Calm Calm - 0.09 in Rain Light Rain
8:53 AM 54.0 °F 54.0 °F 100% 30.06 in 2.5 mi Calm Calm - 0.10 in Rain Light Rain
9:05 AM 55.0 °F 54.0 °F 96% 30.07 in 3.0 mi Calm Calm - 0.01 in Rain Light Rain
9:38 AM 55.9 °F 55.0 °F 97% 30.07 in 4.0 mi Calm Calm - 0.03 in Rain Light Rain
9:45 AM 55.9 °F 55.0 °F 97% 30.07 in 4.0 mi Calm Calm - 0.03 in Rain Light Rain
9:53 AM 57.0 °F 55.9 °F 96% 30.08 in 4.0 mi Calm Calm - 0.04 in Rain Light Rain
10:00 AM 55.9 °F 55.9 °F 100% 30.07 in 4.0 mi Calm Calm - 0.01 in Rain Light Rain
10:07 AM 57.0 °F 55.9 °F 96% 30.08 in 5.0 mi Calm Calm - 0.02 in Rain Light Rain
10:53 AM 57.0 °F 55.9 °F 96% 30.08 in 5.0 mi Calm Calm - 0.05 in Rain Light Rain
11:28 AM 57.9 °F 57.0 °F 97% 30.09 in 8.0 mi Calm Calm - 0.03 in Rain Light Rain
11:38 AM 57.9 °F 57.0 °F 97% 30.09 in 8.0 mi Calm Calm - 0.03 in Rain Light Rain
11:53 AM 57.9 °F 57.0 °F 97% 30.08 in 10.0 mi Calm Calm - 0.03 in   Overcast
12:53 PM 61.0 °F 57.9 °F 90% 30.06 in 10.0 mi Calm Calm - N/A   Overcast
1:36 PM 61.0 °F 57.9 °F 90% 30.04 in 10.0 mi Calm Calm - N/A   Overcast
1:53 PM 62.1 °F 57.9 °F 86% 30.03 in 10.0 mi Calm Calm - N/A   Overcast
2:01 PM 62.1 °F 57.9 °F 86% 30.03 in 10.0 mi Calm Calm - N/A   Overcast
2:34 PM 64.0 °F 57.9 °F 80% 30.02 in 10.0 mi SW 3.5 mph - N/A   Overcast
2:53 PM 63.0 °F 57.9 °F 84% 30.01 in 10.0 mi Variable 3.5 mph - N/A   Overcast
3:09 PM 64.0 °F 57.9 °F 80% 30.02 in 10.0 mi SW 3.5 mph - N/A   Overcast
3:53 PM 64.0 °F 59.0 °F 84% 30.01 in 10.0 mi Calm Calm - N/A   Overcast
4:05 PM 63.0 °F 59.0 °F 87% 30.02 in 10.0 mi Calm Calm - N/A   Overcast
4:53 PM 62.1 °F 59.0 °F 90% 30.01 in 10.0 mi Calm Calm - N/A   Overcast
5:53 PM 61.0 °F 59.0 °F 93% 30.01 in 10.0 mi Calm Calm - N/A   Overcast
6:09 PM 61.0 °F 59.0 °F 93% 30.01 in 10.0 mi Calm Calm - N/A   Overcast
6:53 PM 60.1 °F 59.0 °F 96% 30.01 in 6.0 mi Calm Calm - 0.00 in Rain Light Rain
7:49 PM 60.8 °F 59.0 °F 94% 30.02 in 4.0 mi Calm Calm - 0.01 in   Overcast
7:53 PM 60.1 °F 59.0 °F 96% 30.02 in 5.0 mi Calm Calm - 0.01 in   Overcast
8:53 PM 59.0 °F 59.0 °F 100% 30.03 in 7.0 mi Calm Calm - 0.00 in   Overcast
9:53 PM 59.0 °F 57.9 °F 96% 30.03 in 8.0 mi Calm Calm - N/A   Overcast
10:14 PM 59.0 °F 57.9 °F 96% 30.04 in 8.0 mi SE 3.5 mph - N/A   Overcast
10:47 PM 57.2 °F 57.2 °F 100% 30.04 in 1.8 mi Calm Calm - N/A   Overcast
10:53 PM 57.9 °F 57.0 °F 97% 30.04 in 0.5 mi Calm Calm - N/A Fog Fog
10:58 PM 57.9 °F 57.0 °F 97% 30.04 in 0.2 mi Calm Calm - N/A Fog Fog
11:25 PM 55.9 °F 55.0 °F 97% 30.05 in 0.5 mi Calm Calm - N/A Fog Fog
11:34 PM 55.9 °F 55.0 °F 97% 30.04 in 0.5 mi Calm Calm - N/A Fog Fog
11:42 PM 55.0 °F 55.0 °F 100% 30.04 in 0.5 mi Calm Calm - N/A Fog Fog
11:53 PM 55.0 °F 54.0 °F 96% 30.04 in 0.8 mi Calm Calm - N/A   Mostly Cloudy